Find Prospero

NORAD ID: 5580 Int'l Des: 1971-093 Owner: RAE Country: UK operational
LEOPOLAR

リアルタイム位置

3D地球を読み込み中...

Prosperoについて

説明を読み込み中...

次回通過

Passes for default location (London). Set your location on the main map for personalized predictions.

高度履歴

Loading altitude history...

軌道要素

1 5580U 71093A 26105.40609499 .00001357 00000-0 28523-3 0 9992
2 5580 82.0408 345.9433 0502651 47.2336 316.9991 14.01504019739739
Epoch: Apr 15, 2026 • Age: 13 hours

現在のステータス

高度 911.0 km
速度 7.39 km/s
衛星直下点 38.35°N, 20.4°W
タイプ other

Most Searched